[[{"header":{"parameterUnit":"m.s-1","parameterCategory":1,"la1":30.2991,"la2":30.254,"lo1":-89.0895,"lo2":-89.0444,"dy":0.0017,"dx":0.0017,"nx":28,"ny":28,"refTime":"2024-02-20T09:00:00:Z","depth":0,"parameterNumber":2,"parameterNumberName":"U-component_of_WINDS"},"data":[0,0,0,0,0,0,0,0,0,0,0,0,0,0,0,0,0,0,0,0,0,0,0,0,0,0,0,0,0,0,0,0,0,0,0,0,0,0,0,0,0,0,0,0,0,0,0,0,0,0,0,0,0,0,0,0,0,0,1.862,1.8621,0,1.8788,1.879,1.8792,1.8774,1.8771,1.8768,1.8766,1.8943,1.895,1.8957,0,0,0,0,0,0,0,0,0,0,0,0,0,1.8288,1.8294,1.8619,1.8622,1.8624,1.8788,1.879,1.8792,1.8774,1.8771,1.8768,1.8765,1.8941,1.8949,1.8958,0,0,0,0,0,0,0,0,0,0,0,0,0,1.8442,1.8296,1.8619,1.8634,1.8637,1.8787,1.879,1.8793,1.8775,1.8771,1.8767,1.8763,1.8938,1.8948,1.8959,1.9106,0,0,1.8992,1.8997,0,0,0,0,0,0,0,0,1.8433,1.8454,1.863,1.8633,1.8637,1.8756,1.8738,1.8898,1.8776,1.8723,1.8766,1.8761,1.8884,1.8899,1.894,1.9114,1.9122,1.8993,1.9,1.9004,1.9007,0,0,0,0,0,0,0,1.8422,1.8447,1.8686,1.8633,1.8637,1.8635,1.8652,1.8768,1.8824,1.8727,1.8726,1.8746,1.8885,1.8929,1.8944,1.9125,1.8993,1.9002,1.9009,1.9013,1.9432,1.9437,0,0,0,0,0,0,1.8407,1.8438,1.8681,1.8691,1.8523,1.8644,1.8663,1.8722,1.8823,1.8834,1.8749,1.8745,1.8913,1.8931,1.895,1.9131,1.9004,1.9014,1.902,1.9428,1.9433,1.9438,0,0,0,0,0,0,1.84,1.8429,1.8674,1.8564,1.8595,1.8654,1.872,1.8727,1.8771,1.884,1.885,1.8784,1.891,1.8935,1.9068,1.9137,1.9019,1.9029,1.9422,1.9429,1.9436,1.9494,0,0,0,0,0,0,1.8391,1.8427,1.8482,1.8566,1.8601,1.8788,1.8724,1.8733,1.8789,1.8785,1.8874,1.8886,1.8909,1.9052,1.9079,1.915,1.9037,1.9416,1.9425,1.9434,1.9486,1.9502,1.9515,0,0,0,0,0,1.8379,1.8491,1.8484,1.8514,1.8671,1.8791,1.8812,1.8836,1.8795,1.8852,1.8896,1.8883,1.9125,1.9066,1.9096,1.9171,1.9412,1.9423,1.9433,1.9479,1.9498,1.9515,0,0,0,0,0,0,1.8415,1.8502,1.8496,1.8638,1.8708,1.8788,1.886,1.8855,1.8938,1.893,1.8958,1.8978,1.9113,1.9155,1.9088,1.9321,1.9263,1.928,1.9288,1.9307,1.9322,1.9309,1.9046,0,0,0,0,0,1.8439,1.8528,1.86,1.8719,1.8754,1.8802,1.8855,1.8867,1.894,1.897,1.9024,1.9097,1.919,1.9251,1.934,1.9492,1.9513,1.9559,1.9573,1.9585,1.96,1.9687,1.9709,1.9473,1.9473,1.9472,0,0,1.849,1.8549,1.8604,1.8728,1.8783,1.8877,1.8826,1.8927,1.8997,1.8986,1.9115,1.9158,1.9241,1.9385,1.9451,1.9425,1.967,1.9598,1.9607,1.9616,1.97,1.9722,1.9742,1.948,1.9478,1.9477,0,0,1.8632,1.8684,1.8791,1.8847,1.8931,1.8962,1.8987,1.907,1.9097,1.9227,1.9221,1.9307,1.9465,1.9526,1.9578,1.9745,1.9737,1.9774,1.9851,1.9936,1.9954,1.9971,2.0033,2.0055,1.9788,1.9788,1.9788,0,1.8686,1.8825,1.8846,1.8949,1.9005,1.8998,1.9107,1.9161,1.927,1.9311,1.9278,1.9479,1.9535,1.9695,1.9736,1.9777,1.9809,1.9764,1.9949,1.9966,1.9982,2.0042,2.0066,1.9792,1.9792,1.9791,1.9791,0,1.8888,1.8985,1.9061,1.9166,1.9231,1.9336,1.9376,1.9439,1.9446,1.9482,1.9616,1.9683,1.9787,1.9825,1.9833,1.9987,1.9968,1.9943,1.9886,2.0009,2.0066,2.0089,1.9798,1.9797,1.9795,1.9794,0,0,1.9057,1.9173,1.9201,1.925,1.9343,1.942,1.9526,1.9626,1.9682,1.9758,1.985,1.9985,1.9963,2.0021,2.0037,2.011,2.0243,2.0076,2.0079,2.0107,2.042,2.044,2.0466,2.0237,2.0242,2.0245,2.0414,0,1.921,1.9396,1.942,1.9586,1.9678,1.9674,1.9767,1.9835,1.9872,1.9957,1.9997,2.0094,2.0055,2.0091,2.0164,2.0211,2.0306,2.0199,2.0326,2.033,2.0307,2.0496,2.0517,2.0672,2.0436,2.044,2.0443,0,1.9413,1.9494,1.967,1.9753,1.9792,1.9875,1.9971,2.0051,2.013,2.0151,2.0218,2.0224,2.0338,2.0275,2.0433,2.036,2.0413,2.0445,2.0451,2.0466,2.0395,2.0517,2.0722,2.0747,2.0477,2.0475,2.0472,0,1.9522,1.9675,1.9801,1.9842,1.9941,2.0,2.0045,2.0119,2.0179,2.0263,2.0303,2.04,2.0453,2.0529,2.0563,2.0514,2.072,2.066,2.0744,2.0744,2.0789,2.0786,2.1008,2.082,2.082,2.0819,2.0819,0,1.9691,1.9799,1.9851,1.9929,2.0051,2.0078,2.0199,2.0241,2.0308,2.0396,2.0398,2.0481,2.0519,2.0609,2.0636,2.0765,2.0789,2.0811,2.0818,2.0812,2.081,2.0849,2.084,2.0825,2.0824,2.0823,2.0822,0,1.9833,1.9872,2.0009,2.0092,2.0115,2.0202,2.0274,2.035,2.0386,2.0497,2.0525,2.0583,2.0688,2.0729,2.0858,2.0877,2.1026,2.1023,2.0999,2.1002,2.1084,2.1077,2.1341,2.1378,2.1164,2.1166,2.1167,0,1.9939,2.0023,2.0114,2.0173,2.0219,2.0312,2.0374,2.0404,2.0468,2.0566,2.0632,2.0737,2.0823,2.0993,2.1047,2.1147,2.1148,2.1234,2.1163,2.1156,2.1152,2.1148,2.1158,2.1247,2.1249,2.1251,2.1252,0,2.0125,2.0141,2.0228,2.0323,2.0396,2.0472,2.0547,2.0595,2.0637,2.071,2.0817,2.0884,2.1016,2.1122,2.1225,2.1274,2.1272,2.1274,2.1299,2.1296,2.1279,2.1292,2.1037,2.1268,2.1267,2.1265,2.1265,2.1264,2.0255,2.0329,2.0406,2.0504,2.0563,2.0633,2.071,2.0756,2.0845,2.0955,2.0968,2.1084,2.1164,2.1302,2.1355,2.1449,2.1427,2.1462,2.1472,2.1481,2.1488,2.1263,2.1468,2.1467,2.1467,2.1467,2.1466,0,2.0443,2.0492,2.0581,2.0686,2.0764,2.0753,2.0836,2.0902,2.1004,2.1078,2.1162,2.1288,2.1391,2.1454,2.1559,2.1622,2.1624,2.1649,2.1645,2.1657,2.1501,2.1469,2.1645,2.1645,2.1645,2.1645,2.1645,2.1645,2.0549,2.0676,2.0701,2.0859,2.0908,2.1021,2.1069,2.1135,2.1195,2.1334,2.1419,2.1459,2.153,2.164,2.1736,2.1752,2.1791,2.1818,2.1833,2.1686,2.1668,2.165,2.1621,2.1826,2.1826,2.1982,2.1984,2.1985]},{"header":{"parameterUnit":"m.s-1","parameterCategory":1,"la1":30.2991,"la2":30.254,"lo1":-89.0895,"lo2":-89.0444,"dy":0.0017,"dx":0.0017,"nx":28,"ny":28,"refTime":"2024-02-20T09:00:00:Z","depth":0,"parameterNumber":3,"parameterNumberName":"V-component_of_WINDS"},"data":[0,0,0,0,0,0,0,0,0,0,0,0,0,0,0,0,0,0,0,0,0,0,0,0,0,0,0,0,0,0,0,0,0,0,0,0,0,0,0,0,0,0,0,0,0,0,0,0,0,0,0,0,0,0,0,0,0,0,-1.8754,-1.8755,0,-1.8825,-1.8826,-1.8827,-1.8856,-1.8856,-1.8856,-1.8855,-1.8926,-1.8928,-1.893,0,0,0,0,0,0,0,0,0,0,0,0,0,-1.8641,-1.8642,-1.8754,-1.8755,-1.8756,-1.8825,-1.8826,-1.8827,-1.8856,-1.8856,-1.8856,-1.8855,-1.8926,-1.8928,-1.8931,0,0,0,0,0,0,0,0,0,0,0,0,0,-1.8699,-1.8643,-1.8754,-1.8778,-1.8781,-1.8825,-1.8826,-1.8827,-1.8856,-1.8856,-1.8856,-1.8855,-1.8925,-1.8928,-1.8931,-1.8954,0,0,-1.894,-1.8942,0,0,0,0,0,0,0,0,-1.8695,-1.8703,-1.8774,-1.8777,-1.878,-1.8832,-1.8812,-1.887,-1.8856,-1.8828,-1.8855,-1.8855,-1.8895,-1.89,-1.8914,-1.8958,-1.8961,-1.894,-1.8942,-1.8944,-1.8945,0,0,0,0,0,0,0,-1.8691,-1.87,-1.8782,-1.8775,-1.8779,-1.8785,-1.8793,-1.8823,-1.8862,-1.883,-1.8832,-1.8841,-1.8897,-1.8911,-1.8916,-1.8962,-1.894,-1.8943,-1.8945,-1.8946,-1.9028,-1.9028,0,0,0,0,0,0,-1.8683,-1.8696,-1.878,-1.8784,-1.8736,-1.8788,-1.8797,-1.8815,-1.8861,-1.8868,-1.8841,-1.8842,-1.8906,-1.8912,-1.8919,-1.8949,-1.8944,-1.8946,-1.8948,-1.9028,-1.9028,-1.9029,0,0,0,0,0,0,-1.8681,-1.8691,-1.8777,-1.8741,-1.8752,-1.879,-1.8811,-1.8817,-1.8832,-1.8869,-1.8876,-1.8849,-1.8906,-1.8914,-1.8945,-1.8952,-1.8948,-1.8951,-1.9027,-1.9028,-1.9028,-1.9011,0,0,0,0,0,0,-1.8677,-1.8689,-1.8699,-1.8741,-1.8754,-1.8803,-1.8811,-1.8818,-1.8837,-1.8839,-1.8879,-1.8885,-1.8907,-1.8941,-1.8948,-1.8956,-1.8953,-1.9027,-1.9028,-1.9028,-1.9011,-1.901,-1.901,0,0,0,0,0,-1.8673,-1.8691,-1.87,-1.8709,-1.8767,-1.8803,-1.8811,-1.8836,-1.8837,-1.8847,-1.8872,-1.8884,-1.895,-1.8944,-1.8953,-1.8961,-1.9027,-1.9027,-1.9028,-1.9011,-1.901,-1.901,0,0,0,0,0,0,-1.8648,-1.8697,-1.8707,-1.8739,-1.8767,-1.8808,-1.8821,-1.8835,-1.8862,-1.8863,-1.8892,-1.8901,-1.8929,-1.8949,-1.894,-1.8987,-1.8989,-1.8992,-1.8973,-1.8973,-1.8973,-1.8967,-1.8956,0,0,0,0,0,-1.8647,-1.8672,-1.8713,-1.8737,-1.8751,-1.8784,-1.88,-1.8817,-1.8847,-1.8859,-1.8886,-1.8913,-1.8941,-1.8958,-1.8985,-1.9014,-1.9023,-1.9024,-1.9024,-1.9023,-1.9025,-1.9042,-1.9043,-1.9031,-1.9031,-1.9031,0,0,-1.8643,-1.8673,-1.8687,-1.8733,-1.8757,-1.8782,-1.8793,-1.882,-1.8839,-1.8863,-1.8894,-1.8914,-1.8947,-1.8977,-1.8992,-1.8994,-1.903,-1.9024,-1.9024,-1.9026,-1.9043,-1.9044,-1.9045,-1.9032,-1.9032,-1.9032,0,0,-1.865,-1.8675,-1.8698,-1.8722,-1.8758,-1.8779,-1.8785,-1.8824,-1.8839,-1.8871,-1.8889,-1.8912,-1.8958,-1.8981,-1.8999,-1.9014,-1.9027,-1.9022,-1.9021,-1.9036,-1.9037,-1.9038,-1.9044,-1.9045,-1.9024,-1.9024,-1.9024,0,-1.8641,-1.8681,-1.8708,-1.8734,-1.8753,-1.8776,-1.8799,-1.8821,-1.8863,-1.8876,-1.8878,-1.8937,-1.8961,-1.8996,-1.9,-1.9014,-1.902,-1.9018,-1.9035,-1.9036,-1.9038,-1.9043,-1.9045,-1.9023,-1.9023,-1.9023,-1.9023,0,-1.8668,-1.8695,-1.8709,-1.875,-1.8771,-1.8795,-1.8826,-1.8844,-1.8859,-1.888,-1.8912,-1.8941,-1.8975,-1.8985,-1.8999,-1.9022,-1.9023,-1.903,-1.9033,-1.9037,-1.9043,-1.9045,-1.9022,-1.9022,-1.9023,-1.9023,0,0,-1.866,-1.8717,-1.8722,-1.8741,-1.8782,-1.8803,-1.8828,-1.8862,-1.8877,-1.8905,-1.8927,-1.8965,-1.8972,-1.8992,-1.9009,-1.9023,-1.9033,-1.9029,-1.903,-1.9028,-1.9061,-1.9055,-1.9057,-1.9042,-1.9042,-1.9043,-1.9058,0,-1.8673,-1.8719,-1.8744,-1.878,-1.8806,-1.8828,-1.885,-1.8877,-1.8898,-1.8922,-1.8944,-1.8971,-1.8978,-1.899,-1.9005,-1.9029,-1.904,-1.9028,-1.9062,-1.9063,-1.9053,-1.906,-1.9054,-1.9067,-1.906,-1.906,-1.9061,0,-1.8693,-1.8722,-1.8761,-1.8799,-1.8811,-1.883,-1.8863,-1.8886,-1.8917,-1.8931,-1.8953,-1.8971,-1.8997,-1.8999,-1.9036,-1.9027,-1.9042,-1.9056,-1.9057,-1.9061,-1.9062,-1.9064,-1.9071,-1.9073,-1.9064,-1.9064,-1.9064,0,-1.8684,-1.8733,-1.8762,-1.8778,-1.8823,-1.8836,-1.8856,-1.8887,-1.8906,-1.8934,-1.8946,-1.8977,-1.8994,-1.9017,-1.9042,-1.9041,-1.9076,-1.908,-1.9088,-1.9087,-1.9094,-1.9094,-1.9104,-1.9104,-1.9104,-1.9104,-1.9104,0,-1.8695,-1.8718,-1.8759,-1.8776,-1.8802,-1.8831,-1.8855,-1.8876,-1.8904,-1.8926,-1.8947,-1.8967,-1.8999,-1.9023,-1.9043,-1.907,-1.9078,-1.9089,-1.9094,-1.9087,-1.9086,-1.9097,-1.9097,-1.9105,-1.9105,-1.9105,-1.9104,0,-1.8689,-1.8717,-1.8751,-1.8792,-1.8802,-1.882,-1.8854,-1.8872,-1.8894,-1.8922,-1.893,-1.8963,-1.8993,-1.902,-1.9059,-1.9072,-1.91,-1.9106,-1.9089,-1.9092,-1.9099,-1.9098,-1.9117,-1.9121,-1.9118,-1.9118,-1.9118,0,-1.8694,-1.8712,-1.8755,-1.8772,-1.8791,-1.8818,-1.8837,-1.8865,-1.8884,-1.8921,-1.8935,-1.8966,-1.8992,-1.9038,-1.9065,-1.9095,-1.9102,-1.9107,-1.9107,-1.9099,-1.9102,-1.9101,-1.9103,-1.9106,-1.9106,-1.9106,-1.9106,0,-1.87,-1.8713,-1.8741,-1.8773,-1.8795,-1.8822,-1.8849,-1.8861,-1.8894,-1.8915,-1.8945,-1.8966,-1.9006,-1.9036,-1.9069,-1.9088,-1.9103,-1.9106,-1.911,-1.9103,-1.9092,-1.9098,-1.9088,-1.9105,-1.9106,-1.9106,-1.9106,-1.9106,-1.87,-1.8717,-1.875,-1.8779,-1.8803,-1.8828,-1.8847,-1.8871,-1.8897,-1.8933,-1.8948,-1.8978,-1.9009,-1.9055,-1.9074,-1.9099,-1.9102,-1.9107,-1.9108,-1.9109,-1.9108,-1.9089,-1.9105,-1.9105,-1.9105,-1.9105,-1.9105,0,-1.8707,-1.8729,-1.8756,-1.8794,-1.8817,-1.8829,-1.886,-1.8878,-1.8905,-1.8933,-1.8959,-1.8994,-1.9023,-1.9053,-1.9084,-1.9098,-1.9105,-1.9105,-1.9104,-1.9109,-1.9103,-1.9097,-1.9099,-1.9099,-1.9099,-1.9099,-1.9099,-1.9099,-1.8713,-1.8743,-1.876,-1.8801,-1.8823,-1.8854,-1.887,-1.8893,-1.8916,-1.8954,-1.8979,-1.8999,-1.9027,-1.9061,-1.9088,-1.9096,-1.9107,-1.9105,-1.9114,-1.9109,-1.9109,-1.9109,-1.9104,-1.9107,-1.9107,-1.9118,-1.9118,-1.9118]}]]